This demonstration page uses our WeatherBlox Daily Observations layout. Learn more.

Left ArrowRight Arrow

41.86663, -103.66717

Hourly Observations for February 25, 2019

Temp ( °F °C ) Dew Point ( °F °C ) Humidity (%) Winds ( mph kmh ) Pressure ( in mb ) Visibility ( mi km ) Precip ( " mm )
12:53 am 00:53 Clear 16 -8.9 15 -9.4 96 96 E 12 19 30.11 1020 10 16 N/A
1:53 am 01:53 Clear 17 -8.3 16 -8.9 95 95 ESE 10 17 30.07 1018 10 16 N/A
2:53 am 02:53 Clear 17 -8.3 16 -8.9 95 95 ESE 12 19 30.06 1018 10 16 N/A
3:53 am 03:53 Clear 17 -8.3 16 -8.9 95 95 ESE 10 17 30.04 1017 10 16 N/A
4:53 am 04:53 Clear 18 -7.8 17 -8.3 96 96 E 10 17 30.06 1018 10 16 N/A
5:53 am 05:53 Clear 17 -8.3 16 -8.9 95 95 ESE 12 19 30.06 1018 10 16 N/A
6:53 am 06:53 Sunny 18 -7.8 17 -8.3 96 96 ESE 12 19 30.07 1018 10 16 N/A
7:53 am 07:53 Sunny 20 -6.7 19 -7.2 96 96 ESE 13 20 30.08 1019 10 16 N/A
8:45 am 08:45 Mostly Sunny 21 -6.1 20 -6.7 96 96 E 12 19 30.18 1022 9 14 N/A
8:53 am 08:53 Mostly Cloudy 21 -6.1 20 -6.7 96 96 E 14 22 30.11 1020 9 14 N/A
9:53 am 09:53 Cloudy 20 -6.7 19 -7.2 96 96 ENE 14 22 30.15 1021 9 14 N/A
10:28 am 10:28 Cloudy 10 -12 9 -13 92 92 NNE 18 30 30.35 1028 8 13 N/A
10:53 am 10:53 Cloudy 10 -12.2 7 -13.9 87 87 NNE 17 28 30.22 1024 8 13 N/A
11:53 am 11:53 Cloudy 9 -12.8 5 -15 84 84 NNE 18 30 30.25 1024 7 11 N/A
12:06 pm 12:06 Cloudy 10 -12 7 -14 85 85 NE 17 28 30.37 1029 8 13 N/A
12:53 pm 12:53 Cloudy 9 -12.8 5 -15 84 84 NE 16 26 30.24 1024 10 16 N/A
1:53 pm 13:53 Cloudy with Light Snow 11 -11.7 5 -15 77 77 ENE 15 24 30.25 1024 8 13 N/A
2:19 pm 14:19 Cloudy 10 -12 5 -15 79 79 ENE 16 26 30.39 1029 8 13 N/A
2:53 pm 14:53 Cloudy 12 -11.1 5 -15 73 73 ENE 14 22 30.27 1025 10 16 N/A
3:53 pm 15:53 Cloudy 11 -11.7 5 -15 77 77 ENE 15 24 30.28 1025 8 13 N/A
4:53 pm 16:53 Cloudy 11 -11.7 6 -14.4 81 81 E 12 19 30.28 1025 10 16 N/A
5:53 pm 17:53 Cloudy 11 -11.7 6 -14.4 81 81 E 9 15 30.29 1026 10 16 N/A
6:53 pm 18:53 Cloudy 12 -11.1 8 -13.3 84 84 E 9 15 30.28 1026 10 16 N/A
7:53 pm 19:53 Cloudy 10 -12.2 6 -14.4 84 84 E 12 19 30.28 1025 10 16 N/A
8:53 pm 20:53 Cloudy 10 -12.2 6 -14.4 84 84 ESE 12 19 30.27 1025 10 16 N/A
9:53 pm 21:53 Cloudy 10 -12.2 6 -14.4 84 84 SE 15 24 30.26 1025 9 14 N/A
10:53 pm 22:53 Cloudy with Light Snow 10 -12.2 7 -13.9 87 87 SE 14 22 30.28 1026 4 6 N/A
11:53 pm 23:53 Cloudy 9 -12.8 6 -14.4 88 88 ESE 15 24 30.27 1025 10 16 N/A

Powered by AerisWeather